Home > Weather > Tallinn > Past weeks

Flag for Estonia Weather for the Past 2 Weeks in Tallinn, Estonia

Now
32 °F

Passing clouds.


Feels Like: 29 °F
Forecast: 30 / 35 °F
Wind: 3 mph from East

Location: Tallinn

Current Time: Feb 14, 2016 at 11:43:28 PM

Latest Report: Feb 14, 2016 at 11:20 PM


Visibility: 5 mi

Pressure: 29.56 "Hg

Humidity: 100%

Dew point: 32 °F

Location of TallinnLocation

Historic Weather in Tallinn — Graph

°F

Tallinn Temperature Yesterday

Maximum temperature yesterday: 34 °F (at 5:20 AM)
Minimum temperature yesterday: 32 °F (at 12:20 AM)
Average temperature yesterday: 33 °F

High & Low Weather Summary for the Past Weeks

 TemperatureHumidityPressure
High43 °F (Feb 10, 6:50 PM)100% (Jan 31, 9:20 AM)29.98 "Hg (Jan 31, 9:20 AM)
Low19 °F (Feb 6, 5:20 AM)80% (Feb 3, 10:50 PM)28.80 "Hg (Feb 2, 8:20 AM)
Average34 °F94%29.40 "Hg
* Reported Jan 30 10:20 PM — Feb 14 10:20 PM, Tallinn, Weather by CustomWeather, © 2016

Note: Actual official high and low records may vary slightly from our data, if they occured in-between our weather recording intervals... More about our weather records

Advertising

Tallinn Weather History for the Previous 24 Hours

 ConditionsComfort  
Time TempWeatherWind HumidityBarometerVisibility
10:20 PM
Sun, Feb 14
32 °FLight snow. Passing clouds.5 mph100%29.56 "Hg6 mi
9:50 PM32 °FLight snow. Partly cloudy.5 mph100%29.56 "Hg4 mi
9:20 PM32 °FSnow. Mostly cloudy.5 mph100%29.56 "Hg2 mi
8:50 PM32 °FSnow. Overcast.5 mph100%29.56 "Hg2 mi
8:20 PM32 °FSnow. Mostly cloudy.6 mph100%29.56 "Hg2 mi
7:50 PM32 °FSnow showers. Passing clouds.6 mph100%29.56 "Hg4 mi
7:20 PM32 °FSleet. Partly cloudy.6 mph100%29.56 "Hg5 mi
6:50 PM32 °FLight snow. Partly cloudy.6 mph100%29.56 "HgN/A
6:20 PM32 °FLight snow. Partly cloudy.6 mph100%29.56 "HgN/A
5:50 PM32 °FLight snow. Mostly cloudy.6 mph100%29.56 "HgN/A
5:20 PM34 °FPassing clouds.6 mph93%29.53 "HgN/A
4:50 PM34 °FLight snow. Partly sunny.7 mph93%29.53 "HgN/A
4:20 PM34 °FLight snow. Low clouds.6 mph93%29.53 "HgN/A
3:50 PM34 °FLight snow. Low clouds.6 mph93%29.53 "Hg6 mi
3:20 PM34 °FSnow. Low clouds.6 mph100%29.53 "Hg4 mi
2:50 PM34 °FSnow. Low clouds.7 mph100%29.53 "Hg4 mi
2:20 PM34 °FSnow. Low clouds.7 mph100%29.53 "Hg4 mi
1:50 PM34 °FSnow. Low clouds.8 mph100%29.53 "Hg4 mi
1:20 PM34 °FSnow. Low clouds.7 mph100%29.53 "Hg4 mi
12:50 PM34 °FLight snow. Mostly cloudy.8 mph100%29.53 "Hg6 mi
12:20 PM34 °FLight snow. Low clouds.7 mph100%29.53 "Hg5 mi
11:50 AM34 °FLight snow. Low clouds.8 mph100%29.53 "Hg6 mi
11:20 AM34 °FLight snow. Mostly cloudy.6 mph100%29.53 "Hg6 mi
10:50 AM34 °FSnow. Low clouds.6 mph100%29.53 "Hg2 mi
10:20 AM34 °FSnow. Low clouds.7 mph93%29.53 "Hg4 mi
9:20 AM32 °FLight snow. Low clouds.7 mph100%29.53 "HgN/A
8:50 AM32 °FLight snow. Low clouds.7 mph100%29.53 "Hg5 mi
8:20 AM32 °FPartly sunny.8 mph100%29.53 "HgN/A
7:50 AM32 °FLight snow. Low clouds.7 mph100%29.53 "HgN/A
7:20 AM32 °FLight snow. Mostly cloudy.8 mph100%29.53 "HgN/A
6:50 AM32 °FLight snow. Mostly cloudy.7 mph100%29.56 "Hg5 mi
6:20 AM34 °FSnow. Mostly cloudy.8 mph93%29.56 "Hg4 mi
5:50 AM32 °FLight snow. Mostly cloudy.8 mph100%29.56 "Hg6 mi
5:20 AM32 °FLight snow. Mostly cloudy.9 mph100%29.56 "Hg6 mi
4:50 AM34 °FMostly cloudy.9 mph93%29.56 "HgN/A
4:20 AM34 °FLow clouds.10 mph93%29.56 "HgN/A
3:20 AM34 °FMostly cloudy.10 mph93%29.59 "HgN/A
2:50 AM34 °FPassing clouds.9 mph93%29.59 "HgN/A
2:20 AM34 °FPassing clouds.10 mph93%29.59 "HgN/A
1:50 AM34 °FPartly cloudy.9 mph100%29.62 "HgN/A
1:20 AM34 °FLight snow. Mostly cloudy.10 mph100%29.62 "HgN/A
12:50 AM34 °FLight rain. Partly cloudy.10 mph100%29.62 "HgN/A
12:20 AM34 °FPassing clouds.9 mph100%29.62 "HgN/A
11:50 PM
Sat, Feb 13
34 °FPassing clouds.9 mph93%29.62 "HgN/A
11:20 PM34 °FPassing clouds.9 mph93%29.62 "HgN/A
Weather by CustomWeather, © 2016

See weather overviewHow to use our weather pages